Das Wetter in  D-61279 Heinzenberg / Taunus





Wetter Minimum- & Maximum-Werte im November 2015

Standort: Heinzenberg / Taunus - Höhe 297 m         8 24' 1" Ost 50 21' 51" Nord
(   3-stündige Aktualisierung    letzte Aktualisierung um 19:04 am 30.11.2015  )


Messgrösse

Minimum

Maximum

Durchschnitt

Temperatur West /
Luftfeuchte West
Anklicken für Monats-Diagramm

-3,0 C

04:53
24.11.2015

42 %

14:31
02.11.2015

19,7 C

13:42
08.11.2015

92 %

13:21
17.11.2015

Temp

7,5 C

Feuchte

82 %

Temperatur Ost /
Luftfeuchte Ost
Anklicken für Monats-Diagramm

-2,8 C

04:53
24.11.2015

--

--
--

20,1 C

13:47
08.11.2015

--

--
--

7,7 C

--

Luftdruck Anklicken für Monats-Diagramm

995,7 hPa

12:45
21.11.2015

1033,6 hPa

09:20
01.11.2015

1018,5 hPa

Taupunkt

-4,6 C

04:53
24.11.2015

15,1 C

15:16
07.11.2015

4,6 C

Windchill
( gefühlte Temperatur )

-13,2 C

16:26
22.11.2015

19,7 C

13:42
08.11.2015

3,9 C

Windgeschwindigkeit /
Windrichtung
Anklicken für Monats-Diagramm

---

68,7 km/h / W-SW

23:43
29.11.2015

12,7 km/h
W

Helligkeit /
Sonnenschein
Anklicken für Monats-Diagramm
Anklicken für Monats-Diagramm

Sonnenschein:

57:52 Stunden

Max: 8:20 Std am
02.11.2015

54,50 klux

11:25
11.11.2015

11,3 klux

Solarstrahlung Anklicken für Monats-Diagramm

---

373 W/m

11:25
11.11.2015

86 W/m

Regenmenge
    November 2015
Anklicken für Monats-Diagramm

Insgesamt 81,9 l/m

in 105:45 Stunden
an 18 Tagen

21,7 l/m

03:08
30.11.2015

Gesamtmenge

81,9 l/m

Regen-Tage
    November 2015
Anklicken für Monats-Diagramm

>   0 mm/Tag

>   2 mm/Tag

>   5 mm/Tag

> 10 mm/Tag

> 20 mm/Tag

18 Tage     
7 Tage     
6 Tage     
3 Tage     
  1 Tag     

Eisige Tage November 2015 / 2014

Tmin ≤ -10C     

0 Tage

/

0 Tage

Eistage November 2015 / 2014

Tmax <     0C     

0 Tage

/

0 Tage

Frosttage November 2015 / 2014

Tmin ≤     0C     

10 Tage

/

3 Tage

Kalte Tage November 2015 / 2014

Tmax <   10C     

10 Tage

/

17 Tage

Warme Tage November 2015 / 2014

Tmax ≥   20C     

0 Tage

/

0 Tage

Sommertage November 2015 / 2014

Tmax ≥   25C     

0 Tage

/

0 Tage

Heisse Tage November 2015 / 2014

Tmax ≥   30C     

0 Tage

/

0 Tage


Monatsdiagramm November 2015

Die Kurven zeigen den Durchschnittswert des jeweiligen Tages an


Wetter-Monatsübersicht November 2015
Datum
  Temperatur
   Luftdruck
   Wind
  Regen
   Luftfeuchte
   Helligkeit

Sonnen-
schein


Temp.

Min.
Temp.

Max.
Temp.


Luftdruck

Min.
Luftdruck

Max.
Luftdruck

-Geschw.
Haupt-Richtg.

Max.
Wind

Menge /
Dauer


Feuchte

Min.
Feuchte

Max.
Feuchte


Helligkeit

Max.
Helligkeit

1.
November
5,6 C-0,6 C
07:05
18,4 C
14:35
1031,4 hPa1029,3 hPa
14:35
1033,6 hPa
09:20
1,8 km/h
SO
14,6 km/h
12:50  
---
79 %54 %
13:45
91 %
11:05
23,1 klux42,9 klux
12:15
6:30 Std 
2.
November
4,7 C-1,7 C
08:26
17,3 C
16:01
1028,5 hPa1025,3 hPa
16:01
1031,5 hPa
01:41
3,5 km/h
SO
18,8 km/h
11:51  
---
75 %42 %
14:31
90 %
11:11
25,7 klux44,0 klux
12:21
8:20 Std 
3.
November
2,1 C-2,5 C
08:02
11,3 C
14:37
1023,6 hPa1019,8 hPa
14:42
1027,7 hPa
00:21
1,3 km/h
W-NW
10,6 km/h
12:22  
---
83 %66 %
14:32
89 %
10:32
22,3 klux44,4 klux
12:27
5:51 Std 
4.
November
5,5 C0,0 C
06:38
17,7 C
14:28
1021,8 hPa1019,0 hPa
14:28
1023,3 hPa
06:38
1,6 km/h
W-SW
26,9 km/h
13:53  
---
83 %61 %
14:23
91 %
10:28
20,2 klux45,8 klux
12:48
5:05 Std 
5.
November
9,1 C3,2 C
08:29
19,4 C
15:14
1021,7 hPa1019,9 hPa
15:14
1023,9 hPa
08:59
1,9 km/h
SW
18,1 km/h
12:44  
---
82 %61 %
13:44
91 %
10:29
23,1 klux47,1 klux
13:54
6:40 Std 
6.
November
12,9 C8,3 C
00:05
15,8 C
13:25
1021,7 hPa1020,6 hPa
08:15
1022,6 hPa
21:25
6,4 km/h
W-SW
21,8 km/h
13:50  
1,8 l/m
2:56 Stunden
82 %74 %
13:25
89 %
23:46
8,1 klux28,1 klux
13:20
--- 
7.
November
16,3 C14,0 C
00:01
18,4 C
13:06
1023,7 hPa1022,4 hPa
05:31
1025,3 hPa
23:57
12,8 km/h
W-SW
32,1 km/h
13:06  
0,2 l/m
1:05 Stunden
86 %80 %
13:01
91 %
08:51
9,8 klux47,7 klux
12:26
25 Min 
8.
November
14,4 C10,4 C
08:22
19,7 C
13:42
1026,3 hPa1020,3 hPa
23:43
1030,3 hPa
08:22
4,4 km/h
W
27,2 km/h
23:58  
---
80 %59 %
13:47
88 %
08:42
18,9 klux51,1 klux
11:47
3:35 Std 
9.
November
15,1 C13,2 C
19:28
16,8 C
11:33
1022,9 hPa1020,3 hPa
03:53
1024,8 hPa
19:28
24,8 km/h
W
42,6 km/h
11:48  
---
72 %58 %
15:03
82 %
09:03
12,2 klux48,9 klux
11:03
1:15 Std 
10.
November
13,2 C12,0 C
22:40
15,2 C
12:14
1024,7 hPa1023,6 hPa
14:29
1025,9 hPa
22:40
16,7 km/h
W
30,4 km/h
12:19  
---
74 %65 %
01:49
84 %
22:45
7,9 klux45,1 klux
11:59
20 Min 
11.
November
11,2 C6,6 C
20:00
15,0 C
14:05
1025,2 hPa1024,5 hPa
14:05
1026,1 hPa
08:25
9,2 km/h
W
31,5 km/h
11:55  
---
78 %60 %
14:25
87 %
08:25
19,7 klux54,5 klux
11:25
5:10 Std 
12.
November
11,2 C7,6 C
22:27
15,0 C
13:06
1025,8 hPa1024,4 hPa
22:11
1027,2 hPa
08:41
5,3 km/h
W-SW
19,8 km/h
10:36  
---
20 Minuten
78 %69 %
13:21
86 %
06:11
13,6 klux40,1 klux
11:21
2:35 Std 
13.
November
9,4 C6,3 C
02:22
12,2 C
10:52
1023,5 hPa1021,9 hPa
19:17
1025,6 hPa
23:23
13,8 km/h
W-SW
41,3 km/h
20:47  
0,9 l/m
2:40 Stunden
82 %74 %
19:52
89 %
05:22
5,7 klux25,7 klux
10:42
10 Min 
14.
November
7,4 C5,4 C
04:03
9,2 C
13:08
1025,9 hPa1020,4 hPa
23:14
1027,8 hPa
04:03
23,8 km/h
W-SW
44,9 km/h
11:23  
1,7 l/m
6:21 Stunden
77 %69 %
11:23
87 %
23:59
12,0 klux35,5 klux
11:18
2:10 Std 
15.
November
11,2 C6,4 C
00:14
14,0 C
14:09
1014,7 hPa1012,2 hPa
14:09
1020,4 hPa
00:04
32,6 km/h
W
53,7 km/h
13:59  
1,2 l/m
3:30 Stunden
80 %73 %
13:54
89 %
00:49
7,8 klux33,2 klux
14:09
15 Min 
16.
November
9,9 C8,0 C
07:10
10,8 C
02:20
1016,0 hPa1014,7 hPa
21:45
1017,0 hPa
10:05
12,9 km/h
W-SW
36,9 km/h
12:25  
0,8 l/m
2:26 Stunden
80 %73 %
11:40
86 %
23:56
5,1 klux14,3 klux
11:20
--- 
17.
November
11,8 C9,8 C
01:16
14,7 C
23:57
1010,6 hPa1007,0 hPa
23:57
1014,8 hPa
00:21
23,4 km/h
W-SW
43,2 km/h
23:47  
10,9 l/m
11:30 Stunden
88 %84 %
16:51
92 %
13:21
5,4 klux42,1 klux
13:41
25 Min 
18.
November
12,4 C10,7 C
18:47
15,0 C
00:07
1014,3 hPa1006,9 hPa
00:07
1018,6 hPa
12:02
37,3 km/h
W
62,5 km/h
00:32  
---
68 %62 %
04:07
84 %
00:02
9,3 klux38,7 klux
10:32
55 Min 
19.
November
10,9 C7,9 C
23:49
13,7 C
02:48
1013,2 hPa1008,6 hPa
21:23
1015,6 hPa
09:33
26,1 km/h
W
53,7 km/h
02:13  
13,8 l/m
10:51 Stunden
80 %65 %
11:08
91 %
21:03
7,5 klux40,0 klux
11:18
50 Min 
20.
November
6,3 C2,9 C
23:55
8,3 C
04:19
1006,3 hPa1000,2 hPa
23:55
1012,0 hPa
01:29
11,3 km/h
W
22,8 km/h
08:14  
6,7 l/m
10:50 Stunden
89 %87 %
09:04
92 %
02:19
2,9 klux7,4 klux
12:39
--- 
21.
November
2,6 C-0,2 C
23:06
5,3 C
12:45
998,1 hPa995,7 hPa
12:45
1001,2 hPa
00:35
8,4 km/h
W-SW
27,6 km/h
07:05  
1,1 l/m
2:15 Stunden
85 %78 %
13:00
89 %
00:15
7,86 klux22,20 klux
12:14
--- 
22.
November
0,8 C-0,4 C
18:31
3,2 C
13:26
1007,0 hPa1000,5 hPa
00:41
1014,1 hPa
23:52
8,1 km/h
W-NW
39,1 km/h
16:26  
5,9 l/m
4:11 Stunden
87 %76 %
13:31
90 %
02:46
10,1 klux41,8 klux
11:11
55 Min 
23.
November
0,7 C-2,4 C
23:48
5,6 C
15:02
1021,8 hPa1014,0 hPa
00:52
1026,8 hPa
23:48
1,5 km/h
W
12,0 km/h
15:02  
---
89 %79 %
15:42
91 %
02:42
10,4 klux45,3 klux
13:32
1:50 Std 
24.
November
-0,6 C-3,0 C
04:53
1,0 C
15:23
1020,3 hPa1010,9 hPa
23:39
1026,8 hPa
00:13
7,3 km/h
SW
30,1 km/h
11:53  
3,6 l/m
4:56 Stunden
87 %82 %
17:03
90 %
05:48
8,8 klux18,5 klux
11:28
20 Min 
25.
November
2,2 C-0,2 C
00:24
5,9 C
14:19
1007,5 hPa1005,0 hPa
14:19
1010,9 hPa
00:24
3,3 km/h
W-SW
22,2 km/h
13:29  
1,7 l/m
6:21 Stunden
89 %85 %
14:14
91 %
22:30
8,8 klux40,7 klux
12:49
1:05 Std 
26.
November
3,3 C0,5 C
23:46
6,4 C
14:00
1016,3 hPa1008,6 hPa
00:10
1023,3 hPa
23:46
1,6 km/h
NW
14,0 km/h
14:30  
---
89 %81 %
13:55
91 %
00:30
7,2 klux37,1 klux
13:55
35 Min 
27.
November
-0,1 C-2,2 C
09:16
3,4 C
15:31
1019,5 hPa1014,0 hPa
22:27
1023,5 hPa
02:46
3,6 km/h
SW
24,5 km/h
22:11  
---
20 Minuten
90 %87 %
16:01
92 %
09:31
10,4 klux37,0 klux
13:31
1:36 Std 
28.
November
2,0 C-0,6 C
00:02
4,5 C
13:22
1014,0 hPa1009,7 hPa
08:17
1017,9 hPa
18:47
15,0 km/h
W-SW
33,2 km/h
22:52  
1,5 l/m
6:35 Stunden
85 %77 %
16:27
92 %
10:12
7,7 klux36,4 klux
13:17
1:00 Std 
29.
November
6,8 C3,3 C
00:02
10,0 C
23:38
1012,9 hPa1011,7 hPa
22:28
1015,6 hPa
00:02
31,9 km/h
W-SW
68,7 km/h
23:43  
8,4 l/m
11:36 Stunden
84 %76 %
23:38
90 %
11:18
3,2 klux13,1 klux
12:23
--- 
30.
November
8,0 C6,0 C
06:33
10,1 C
00:18
1016,8 hPa1012,7 hPa
00:18
1021,4 hPa
10:03
30,4 km/h
W
60,6 km/h
00:13  
21,7 l/m
17:02 Stunden
87 %75 %
00:13
91 %
23:39
3,5 klux8,9 klux
11:23
--- 



November
2015

Temperatur

  

Luftdruck

  

Wind

  

Regen

  

Luftfeuchte

  

Helligkeit

Sonnen-
schein

Min

Max

Min

Max

Max

Max

Min

Max

Max

Max

7,5 C

-3,0 C

04:53 Uhr
24.11.2015

19,7 C

13:42 Uhr
08.11.2015

1018,5 hPa

995,7 hPa

12:45 Uhr
21.11.2015

1033,6 hPa

09:20 Uhr
01.11.2015

12,7 km/h

W

68,7 km/h

23:43 Uhr
29.11.2015

21,7 l/m

17:02 Stunden
30.11.2015

82 %

42 %

14:31 Uhr
02.11.2015

92 %

13:21 Uhr
17.11.2015

11,28 klux

54,5 klux

11:25 Uhr
11.11.2015

8:20 Std

am
02.11.2015

Gesamt

Gesamt

81,9 l/m

18 Tage
105:45 h

57:52 Std


Wetter-Diagramme November 2015     Heinzenberg / Taunus   
TemperaturLuftfeuchte
SolarstrahlungLuftdruck
HelligkeitSonnenschein
RegenmengeRegendauer
Wind-GeschwindigkeitWind-Richtung